Stations météo

réclame
Mon MeteoGroup
Capo Bellavista, Italie (16550): Température de l'air & dewpoint: 20.09.2018 05:00:00 - 26.09.2018 05:00:00 (CEST)Capo Bellavista, Italie (16550): Vitesse du vent: 20.09.2018 05:00:00 - 26.09.2018 05:00:00 (CEST)Capo Bellavista, Italie (16550): Direction du vent: 20.09.2018 05:00:00 - 26.09.2018 05:00:00 (CEST)Capo Bellavista, Italie (16550): reduced air pressure: 20.09.2018 05:00:00 - 26.09.2018 05:00:00 (CEST)Capo Bellavista, Italie (16550): visibility: 20.09.2018 05:00:00 - 26.09.2018 05:00:00 (CEST)Capo Bellavista, Italie (16550): Ensoleillement: 20.09.2018 05:00:00 - 26.09.2018 05:00:00 (CEST)
Date & Time tt [°C] td [°C] ff [km/h] ff [knt] dd ppp [hPa] vv [km] sd [min]
26.09.2018 05:00:00 18,8 9,9 28 15 NNE 1025,8 20 -
26.09.2018 04:00:00 19,0 8,1 26 14 N 1025,6 20 -
26.09.2018 03:00:00 19,2 10,0 26 14 N 1025,7 20 -
26.09.2018 02:00:00 19,2 9,4 29 16 N 1025,7 20 -
26.09.2018 01:00:00 19,4 9,3 28 15 NNE 1025,6 20 -
26.09.2018 00:00:00 19,4 8,4 28 15 N 1025,4 20 -
25.09.2018 23:00:00 19,6 8,9 26 14 N 1025,3 20 -
25.09.2018 22:00:00 19,6 9,5 22 12 N 1025,1 20 -
25.09.2018 21:00:00 19,4 10,4 28 15 N 1023,8 20 -
25.09.2018 20:00:00 19,6 10,6 29 16 NE 1023,7 20 0
25.09.2018 19:00:00 18,2 16,5 37 20 NE 1023,0 10 0
25.09.2018 18:00:00 18,4 16,7 34 18 ENE 1023,0 10 0
25.09.2018 17:00:00 18,8 18,2 29 16 ENE 1023,0 20 0
25.09.2018 16:00:00 19,8 17,2 31 17 NNE 1022,9 20 0
25.09.2018 15:00:00 21,6 13,2 22 12 E 1022,9 20 0
25.09.2018 14:00:00 20,2 14,6 37 20 NE 1022,9 10 0
25.09.2018 13:00:00 20,2 14,5 35 19 NE 1022,6 10 0
25.09.2018 12:00:00 20,0 17,8 41 22 E 1021,7 10 0
25.09.2018 11:00:00 21,0 18,9 41 22 ENE 1020,6 10 0
25.09.2018 10:00:00 21,0 18,9 65 35 E 1019,6 10 0
25.09.2018 09:00:00 21,4 20,9 34 18 NE 1018,2 10 0
25.09.2018 08:00:00 22,2 19,9 31 17 NNE 1017,9 14 0
25.09.2018 07:00:00 22,4 19,4 21 11 N 1017,8 16 -
25.09.2018 06:00:00 22,0 19,0 26 14 N 1017,1 20 -
25.09.2018 05:00:00 22,4 20,0 15 8 NNW 1017,1 20 -
25.09.2018 04:00:00 22,4 18,8 15 8 NNW 1017,1 20 -
25.09.2018 03:00:00 22,6 18,4 22 12 NNE 1017,2 20 -
25.09.2018 02:00:00 22,8 17,5 26 14 NNE 1017,3 20 -
25.09.2018 01:00:00 22,6 11,7 16 9 N 1017,0 25 -
25.09.2018 00:00:00 23,6 6,8 18 10 N 1016,9 30 -
24.09.2018 23:00:00 23,0 -6,9 15 8 N 1016,4 30 -
24.09.2018 22:00:00 24,0 -1,8 18 10 WNW 1015,2 25 -
24.09.2018 21:00:00 24,4 20,5 2 1 E 1015,5 20 -
24.09.2018 20:00:00 25,2 23,1 4 2 WSW 1014,5 25 24
24.09.2018 19:00:00 27,6 21,6 4 2 SSW 1014,0 30 60
24.09.2018 18:00:00 28,0 20,8 9 5 S 1013,6 30 60
24.09.2018 17:00:00 28,6 21,4 9 5 S 1014,1 30 60
24.09.2018 16:00:00 30,4 22,3 9 5 S 1014,0 30 60
24.09.2018 15:00:00 30,4 20,3 2 1 SSE 1014,4 30 60
24.09.2018 14:00:00 29,2 15,7 2 1 SE 1014,7 30 60
24.09.2018 13:00:00 28,8 23,5 15 8 E 1015,0 30 60
24.09.2018 12:00:00 29,8 18,9 2 1 ESE 1014,6 30 60
24.09.2018 11:00:00 27,4 18,4 2 1 S 1014,2 30 60
24.09.2018 10:00:00 25,4 11,6 2 1 S 1014,2 30 60
24.09.2018 09:00:00 25,0 10,2 0 0 N 1014,2 30 60
24.09.2018 08:00:00 23,8 10,2 0 0 N 1014,2 30 60
24.09.2018 07:00:00 22,2 11,0 0 0 N 1014,2 30 -
24.09.2018 06:00:00 22,2 11,4 11 6 SSW 1014,4 30 -
24.09.2018 05:00:00 22,2 13,3 0 0 N 1015,3 20 -
24.09.2018 04:00:00 22,2 12,2 0 0 N 1015,4 30 -
24.09.2018 03:00:00 22,0 12,0 8 4 NW 1016,0 30 -
24.09.2018 02:00:00 22,0 13,4 15 8 NW 1016,3 30 -
24.09.2018 01:00:00 22,0 17,9 5 3 NNW 1016,5 30 -
24.09.2018 00:00:00 21,2 18,2 0 0 N 1017,1 30 -
23.09.2018 23:00:00 21,4 18,8 15 8 NW 1017,2 30 -
23.09.2018 22:00:00 21,8 19,2 0 0 N 1017,5 30 -
23.09.2018 21:00:00 23,0 20,4 0 0 N 1017,4 30 -
23.09.2018 20:00:00 23,6 20,8 0 0 N 1017,2 30 0
23.09.2018 19:00:00 26,2 19,9 0 0 N 1017,2 30 60
23.09.2018 18:00:00 26,4 18,6 0 0 N 1017,2 30 60
23.09.2018 17:00:00 27,4 19,7 0 0 N 1016,9 30 60
23.09.2018 16:00:00 27,4 17,8 0 0 N 1018,0 30 60
23.09.2018 15:00:00 27,2 18,8 0 0 N 1018,5 30 60
23.09.2018 14:00:00 26,0 19,1 8 4 ESE 1019,2 30 60
23.09.2018 13:00:00 26,0 18,1 8 4 E 1019,3 30 60
23.09.2018 12:00:00 26,0 16,4 8 4 E 1019,3 30 60
23.09.2018 11:00:00 25,4 16,4 0 0 N 1019,2 30 60
23.09.2018 10:00:00 22,0 15,2 0 0 N 1018,8 30 60
23.09.2018 09:00:00 20,6 14,5 2 1 NW 1019,0 20 0
23.09.2018 08:00:00 19,6 14,4 9 5 WNW 1018,5 16 0
23.09.2018 07:00:00 20,4 15,2 2 1 WNW 1018,6 16 -
23.09.2018 06:00:00 21,4 16,4 2 1 NW 1018,7 20 -
23.09.2018 05:00:00 22,0 17,6 9 5 NE 1017,6 20 -
23.09.2018 04:00:00 20,6 16,4 9 5 N 1018,4 20 -
23.09.2018 03:00:00 20,4 13,6 9 5 NNW 1018,7 25 -
23.09.2018 02:00:00 21,4 15,7 2 1 N 1018,7 25 -
23.09.2018 01:00:00 21,6 13,0 8 4 NW 1018,9 25 -
23.09.2018 00:00:00 22,2 11,3 8 4 NW 1018,5 25 -
22.09.2018 23:00:00 22,2 16,2 11 6 NW 1018,6 20 -
22.09.2018 22:00:00 22,6 20,1 5 3 NNW 1018,4 20 -
22.09.2018 21:00:00 23,0 20,7 11 6 SW 1017,9 20 -
22.09.2018 20:00:00 23,6 21,1 13 7 SSW 1017,0 18 12
22.09.2018 19:00:00 24,2 20,5 13 7 SSW 1017,2 18 24
22.09.2018 18:00:00 24,8 20,7 13 7 SSW 1017,2 16 60
22.09.2018 17:00:00 25,8 20,8 11 6 SSW 1016,8 16 60
22.09.2018 16:00:00 28,0 20,3 2 1 S 1016,8 20 60
22.09.2018 15:00:00 28,2 20,0 2 1 SSE 1017,5 20 60
22.09.2018 14:00:00 28,2 20,0 2 1 E 1017,6 20 60
22.09.2018 13:00:00 - - - - - - - -
22.09.2018 12:00:00 27,6 19,7 2 1 SE 1017,5 20 60
22.09.2018 11:00:00 - - - - - - - -
22.09.2018 10:00:00 22,6 17,3 2 1 SW 1017,6 25 48
22.09.2018 09:00:00 21,6 15,0 2 1 SW 1016,8 25 48
22.09.2018 08:00:00 20,0 14,8 2 1 N 1016,1 20 0
22.09.2018 07:00:00 19,8 13,5 11 6 NW 1016,0 20 0
22.09.2018 06:00:00 20,0 13,9 4 2 NW 1016,0 20 -
22.09.2018 05:00:00 20,2 16,3 8 4 NNE 1015,8 20 -
22.09.2018 04:00:00 - - - - - - - -
22.09.2018 03:00:00 20,8 14,2 18 10 NNE 1015,7 20 -
22.09.2018 02:00:00 20,8 15,6 15 8 N 1015,6 20 -
22.09.2018 01:00:00 20,8 14,7 18 10 N 1015,9 20 -
22.09.2018 00:00:00 21,2 16,2 15 8 N 1015,7 20 -
21.09.2018 23:00:00 21,4 16,6 21 11 N 1015,6 20 -
21.09.2018 22:00:00 21,2 16,4 16 9 NNW 1014,4 20 -
21.09.2018 21:00:00 21,6 18,2 29 16 NNE 1013,7 20 -
21.09.2018 20:00:00 22,0 18,8 28 15 NNE 1013,5 20 -
21.09.2018 19:00:00 21,6 18,2 31 17 NNE 1013,3 20 0
21.09.2018 18:00:00 22,0 18,8 34 18 NNE 1013,2 20 0
21.09.2018 17:00:00 22,0 19,0 34 18 NNE 1013,2 20 0
21.09.2018 16:00:00 21,8 19,2 34 18 NNE 1013,2 14 0
21.09.2018 15:00:00 21,4 17,8 29 16 NNE 1013,2 14 0
21.09.2018 14:00:00 20,8 18,7 41 22 NNE 1012,8 14 0
21.09.2018 13:00:00 21,2 18,2 35 19 NE 1013,4 10 0
21.09.2018 12:00:00 21,0 19,1 39 21 NE 1012,8 12 0
21.09.2018 11:00:00 21,8 18,4 41 22 NE 1012,0 12 0
21.09.2018 10:00:00 20,4 18,4 42 23 NE 1011,5 12 0
21.09.2018 09:00:00 20,0 18,2 42 23 NE 1011,5 12 0
21.09.2018 08:00:00 20,2 18,4 42 23 NNE 1011,2 12 0
21.09.2018 07:00:00 20,0 18,2 29 16 NNE 1010,9 20 -
21.09.2018 06:00:00 20,0 18,2 35 19 NE 1010,9 20 -
21.09.2018 05:00:00 20,4 18,6 37 20 NNE 1010,9 18 -
21.09.2018 04:00:00 20,4 18,7 34 18 ENE 1010,9 18 -
21.09.2018 03:00:00 20,8 19,1 41 22 ENE 1010,5 16 -
21.09.2018 02:00:00 20,2 18,4 31 17 NE 1011,2 16 -
21.09.2018 01:00:00 21,0 17,4 31 17 N 1011,6 20 -
21.09.2018 00:00:00 20,8 19,0 31 17 NNE 1012,2 20 -
20.09.2018 23:00:00 19,6 17,8 34 18 NNE 1012,5 18 -
20.09.2018 22:00:00 19,8 18,0 21 11 NW 1012,6 16 -
20.09.2018 21:00:00 19,8 18,0 24 13 N 1012,5 12 -
20.09.2018 20:00:00 21,4 16,3 29 16 NNW 1012,3 25 0
20.09.2018 19:00:00 21,4 16,9 22 12 NNW 1012,5 25 0
20.09.2018 18:00:00 21,6 18,1 16 9 N 1012,5 25 0
20.09.2018 17:00:00 22,0 16,2 22 12 N 1013,6 20 0
20.09.2018 16:00:00 21,0 17,1 22 12 N 1014,4 25 0
20.09.2018 15:00:00 20,2 18,4 22 12 N 1013,5 16 0
20.09.2018 14:00:00 24,0 14,4 44 24 NE 1014,2 20 36
20.09.2018 13:00:00 25,0 15,2 22 12 NNE 1014,3 25 36
20.09.2018 12:00:00 24,0 15,5 15 8 NNE 1015,0 20 30
20.09.2018 11:00:00 23,0 15,4 15 8 NW 1015,1 25 18
20.09.2018 10:00:00 21,0 15,5 13 7 NW 1015,0 25 30
20.09.2018 09:00:00 20,4 15,2 13 7 NW 1015,3 25 0
20.09.2018 08:00:00 21,0 14,4 11 6 NNE 1015,2 25 0
20.09.2018 07:00:00 21,0 14,4 5 3 NW 1015,1 20 -
20.09.2018 06:00:00 20,6 15,7 13 7 NNW 1015,5 20 -
20.09.2018 05:00:00 20,4 14,8 15 8 NW 1015,2 20 -

tt = Température de l'air
td = dewpoint
ff = Vitesse du vent
dd = Direction du vent
ppp = reduced air pressure
vv = visibility
sd = Ensoleillement

stations d'obs. à proximité